TimeEST,TemperatureF,Dew PointF,Humidity,Sea Level PressureIn,VisibilityMPH,Wind Direction,Wind SpeedMPH,Gust SpeedMPH,PrecipitationIn,Events,Conditions,WindDirDegrees,DateUTC
12:53 AM,19.9,16.0,85,30.38,10.0,Calm,Calm,-,N/A,,Clear,0,2013-03-09 05:53:00
1:53 AM,18.0,15.1,88,30.38,10.0,Calm,Calm,-,N/A,,Clear,0,2013-03-09 06:53:00
2:53 AM,17.1,14.0,88,30.37,10.0,Calm,Calm,-,N/A,,Clear,0,2013-03-09 07:53:00
3:53 AM,17.1,12.9,84,30.37,10.0,Calm,Calm,-,N/A,,Clear,0,2013-03-09 08:53:00
4:53 AM,16.0,12.0,84,30.39,10.0,Calm,Calm,-,N/A,,Clear,0,2013-03-09 09:53:00
5:53 AM,15.1,10.9,84,30.40,10.0,Calm,Calm,-,N/A,,Clear,0,2013-03-09 10:53:00
6:53 AM,15.1,12.0,88,30.41,10.0,Calm,Calm,-,N/A,,Clear,0,2013-03-09 11:53:00
7:53 AM,19.9,16.0,85,30.42,10.0,Calm,Calm,-,N/A,,Clear,0,2013-03-09 12:53:00
8:53 AM,26.1,19.9,78,30.43,10.0,Calm,Calm,-,N/A,,Clear,0,2013-03-09 13:53:00
9:53 AM,32.0,21.0,64,30.43,10.0,Calm,Calm,-,N/A,,Clear,0,2013-03-09 14:53:00
10:53 AM,37.0,21.0,52,30.42,10.0,Calm,Calm,-,N/A,,Clear,0,2013-03-09 15:53:00
11:53 AM,39.0,23.0,53,30.40,10.0,NW,3.5,-,N/A,,Clear,320,2013-03-09 16:53:00
12:53 PM,41.0,21.9,47,30.39,10.0,Calm,Calm,-,N/A,,Clear,0,2013-03-09 17:53:00
1:53 PM,43.0,21.9,43,30.38,10.0,Calm,Calm,-,N/A,,Clear,0,2013-03-09 18:53:00
2:53 PM,43.0,19.0,38,30.38,10.0,Calm,Calm,-,N/A,,Clear,0,2013-03-09 19:53:00
3:53 PM,44.1,19.0,37,30.36,10.0,Calm,Calm,-,N/A,,Clear,0,2013-03-09 20:53:00
4:53 PM,45.0,19.0,36,30.36,10.0,Calm,Calm,-,N/A,,Clear,0,2013-03-09 21:53:00
5:53 PM,41.0,21.0,45,30.37,10.0,NNE,4.6,-,N/A,,Clear,30,2013-03-09 22:53:00
6:53 PM,36.0,21.9,57,30.36,10.0,NE,3.5,-,N/A,,Clear,50,2013-03-09 23:53:00
7:53 PM,30.0,21.9,72,30.37,10.0,Calm,Calm,-,N/A,,Clear,0,2013-03-10 00:53:00
8:53 PM,28.9,21.0,72,30.35,10.0,Calm,Calm,-,N/A,,Clear,0,2013-03-10 01:53:00
9:53 PM,27.0,21.0,78,30.35,10.0,Calm,Calm,-,N/A,,Clear,0,2013-03-10 02:53:00
10:53 PM,26.1,19.9,78,30.34,10.0,Calm,Calm,-,N/A,,Clear,0,2013-03-10 03:53:00
11:53 PM,26.1,21.0,81,30.32,10.0,Calm,Calm,-,N/A,,Clear,0,2013-03-10 04:53:00